Location: North Runcton
(52.7000°N, 0.4333°E)
Time: 06:17:38
(UTC+00:00)

Landsat 5 - Pass Details

Date: 19 May 2025
Orbit: 510 x 610 km, 98.1° (Epoch: 18 June)

Event Time Altitude Azimuth Distance (km) Brightness Sun altitude
Rises 23:27:37 0° 12° (NNE) 2,806 8.3 -17.1°
Reaches altitude 10° 23:29:45 10° 10° (N) 1,918 7.3 -17.1°
Maximum altitude 23:33:53 66° 289° (WNW) 653 3.7 -17.2°
Enters shadow 23:36:02 28° 214° (SSW) 1,147 4.5 -17.2°
